Showing default

NAOS, 65317

Orbit data source: Space-Track

NAOS, 65317 is a Luxembourger payload satellite in SSO that was launched on Tue, 26 Aug 2025 UTC via an FALCON 9 launch vehicle from the Air Force Western Test Range (AFWTR). Payload-class satellites include a variety of spacecraft equipped with specific instruments for various scientific and technological missions. These include communications satellites like Starlink; space stations such as the ISS; scientific satellites like the Hubble; Earth observation satellites from companies like Planet Labs, Umbra, and HawkEye 360; GPS; miniature CubeSats for education and research; and military/defense satellites.

Loading next visibility...
Identifier
65317, 2025-188C
Orbit
SSO
Country
Flag of LULU / LUXE
Related business
Manufacturer
OHB-I
Mission
Operational Commercial Imaging
Bus & Motor
NAOS, Unknown motor
Mass
645 kg wet, 645 kg dry
Launch date (UTC)
2025-08-26 (8 months ago)
Launch vehicle
FALCON 9
Launch site
Air Force Western Test Range (AFWTR)
Object type
Payload
Rocket body
Debris
Shape & HBR
Hex Cyl + 2 Pan, 14.5 m
Radar Cross Section
9.075 m², Large (>1 m²)

Expand to show TLE details & history
Last TLE update: 2 days ago

TLE from 2 days ago
0 NAOS
1 65317U 25188C   26122.80040409  .00011357  00000-0  29896-3 0  9998
2 65317  97.2045 198.9085 0001001 314.6314  45.4850 15.38703054 38288
Epoch: 2026-05-02T19:12Z
TLE epoch observation values (Epoch: 2026-05-02T19:12:34.913Z)
Latitude
-0.00002°
Longitude
50.04993°
Altitude
452.586 km
Speed
7.641 km/s
True Right ascension
13h 15m 38s
True Declination
0° 00' 00"
Sunlit
Object was in full shadow at epoch
Visualization orbit readout
Latitude
Unknown
Longitude
Unknown
Altitude
Unknown
Speed
Unknown
Apparent Right ascension
Unknown
Apparent Declination
Unknown
Sunlit
N/A
Visualization observer readout
Local Sidereal Time
22:50:22
Azimuth
Unknown
Elevation
Unknown
Doppler factor
Unknown
Orbital elements
Apogee altitude
447.559 km
Perigee altitude
446.193 km
Semi-major axis
6,825.013 km
Eccentricity
0.0001
Inclination
97.2045°
RAAN
198.9085°
Arg. of periapsis
314.6314°
True anomaly
45.49318°
Mean anomaly
45.485°
Eccentric anomaly
45.48909°
Mean motion
3.84935 °/min
Orbital period
93.52 mins
BSTAR
0.00029896
Loading maneuver chart data...
Computing Atmospheric mass density...
Loading historical data...
Loading historical data...
Loading historical data...
Loading historical data...
Loading historical data...
Loading historical data...
Loading historical data...

Documentation

Showing up to 5 results
|